Volver al catálogo

NOAA 16 DEB

ActivoPO
NORAD 41494·DEBRIS·🇺🇸 United States

Lanzado Sep 21, 2000 desde Vandenberg Space Force Base

Loading…

Próximos Pases (próximas 24 horas)

TLE

ActualizadoSource: Space-Track

Época: Sep 14, 2026, 09:23 UTC

1 41494U 00055LS  26257.39152554  .00006420  00000-0  12420-2 0  9991
2 41494  98.9278 111.0064 0020396 135.7872 224.4962 14.63600586547311

Sigue NOAA 16 DEB en tiempo real con AllMySat

Download on the App Store